Probability
0 0 0 0 0 0 0 0 0 0 0 0 0 0 0 0 0 0 0 0 0 0 0 0 0 2 6 12 20 26 25 26 29 22 8 1 0 0 0 0 0 0 0 0
0 0 0 0 0 0 0 0 0 0 0 0 0 0 0 0 0 0 0 0 0 0 1 2 4 9 16 25 38 50 53 52 51 39 18 5 1 0 0 0 0 0 0 0
0 0 0 0 0 0 0 0 0 0 0 0 0 0 0 0 0 0 0 0 0 0 4 12 21 29 39 51 67 80 84 82 76 62 37 13 2 0 0 0 0 0 0 0
0 0 0 0 0 0 0 0 0 0 0 0 0 0 0 0 0 0 0 0 0 2 13 34 51 60 69 79 90 95 94 90 81 67 43 18 3 0 0 0 0 0 0 0
0 0 0 0 0 0 0 0 0 0 0 0 0 0 0 0 0 0 0 0 1 7 27 56 76 85 91 95 96 93 85 74 61 46 27 11 3 0 0 0 0 0 0 0
0 0 0 0 0 0 0 0 0 0 0 0 0 0 0 0 0 0 0 0 3 15 40 67 85 92 94 92 85 72 56 40 27 18 9 3 1 0 0 0 0 0 0 0
0 0 0 0 0 0 0 0 0 0 0 0 0 0 0 0 0 0 0 0 3 16 38 60 73 77 76 73 61 42 24 12 5 3 1 0 0 0 0 0 0 0 0 0
0 0 0 0 0 0 0 0 0 0 0 0 0 0 0 0 0 0 0 0 1 8 21 36 45 48 48 46 36 20 6 1 0 0 0 0 0 0 0 0 0 0 0 0
0 0 0 0 0 0 0 0 0 0 0 0 0 0 0 0 0 0 0 0 0 1 6 14 21 23 23 20 15 7 1 0 0 0 0 0 0 0 0 0 0 0 0 0
0 0 0 0 0 0 0 0 0 0 0 0 0 0 0 0 0 0 0 0 0 0 2 5 7 9 8 5 3 1 0 0 0 0 0 0 0 0 0 0 0 0 0 0
0 0 0 0 0 0 0 0 0 0 0 0 0 0 0 0 0 0 0 0 0 0 0 1 1 2 2 1 0 0 0 0 0 0 0 0 0 0 0 0 0 0 0 0
0 0 0 0 0 0 0 0 0 0 0 0 0 0 0 0 0 0 0 0 0 0 0 0 0 1 1 0 0 0 0 1 1 1 1 0 0 0 0 0 0 0 0 0
0 0 0 0 0 0 0 0 0 0 0 0 0 0 0 0 0 0 0 0 0 0 0 0 0 0 0 0 0 0 1 2 3 3 2 2 1 0 0 0 0 0 0 0
0 0 0 0 0 0 0 0 0 0 0 0 0 0 0 0 0 0 0 0 0 0 0 0 0 0 0 0 0 1 3 6 7 8 7 5 2 1 0 0 0 0 0 0
0 0 0 0 0 0 0 0 0 0 0 0 0 0 0 0 0 0 0 0 0 0 0 0 0 0 0 0 0 2 4 7 11 14 13 9 4 1 0 0 0 0 0 0
0 0 0 0 0 0 0 0 0 0 0 0 0 0 0 0 0 0 0 0 0 0 0 0 0 0 0 0 0 1 2 5 8 12 12 9 5 1 0 0 0 0 0 0
0 0 0 0 0 0 0 0 0 0 0 0 0 0 0 0 0 0 0 0 0 0 0 0 0 0 0 0 0 0 0 1 3 4 5 4 2 1 0 0 0 0 0 0
0 0 0 0 0 0 0 0 0 0 0 0 0 0 0 0 0 0 0 0 0 0 0 0 0 0 0 0 0 0 0 0 0 0 0 0 0 0 0 0 0 0 0 0
0 0 0 0 0 0 0 0 0 0 0 0 0 0 0 0 0 0 0 0 0 0 0 0 0 0 0 0 0 0 0 0 0 0 0 0 0 0 0 0 0 0 0 0
0 0 0 0 0 0 0 0 0 0 0 0 0 0 0 0 0 0 0 0 0 0 0 0 0 0 0 0 0 0 0 0 0 0 0 0 0 0 0 0 0 0 0 0
0 0 0 0 0 0 0 0 0 0 0 0 0 0 0 0 0 0 0 0 0 0 0 0 0 0 0 0 0 0 0 0 0 0 0 0 0 0 0 0 0 0 0 0
0 0 0 0 0 0 0 0 0 0 0 0 0 0 0 0 0 0 0 0 0 0 0 0 0 0 0 0 0 0 0 0 0 0 0 0 0 0 0 0 0 0 0 0
0 0 0 0 0 0 0 0 0 0 0 0 0 0 0 0 0 0 0 0 0 0 0 0 0 0 0 0 0 0 0 0 0 0 0 0 0 0 0 0 0 0 0 0
0 0 0 0 0 0 0 0 0 0 0 0 0 0 0 0 0 0 0 0 0 0 0 0 0 0 0 0 0 0 0 0 0 0 0 0 0 0 0 0 0 0 0 0
0 0 0 0 0 0 0 0 0 0 0 0 0 0 0 0 0 0 0 0 0 0 0 0 0 0 0 0 0 0 0 0 0 0 0 0 0 0 0 0 0 0 0 0
0 0 0 0 0 0 0 0 0 0 0 0 0 0 0 0 0 0 0 0 0 0 0 0 0 0 0 0 0 0 0 0 0 0 0 0 0 0 0 0 0 0 0 0
Wind_Speed
2 2 2 3 4 5 3 2 4 4 2 2 5 9 12 6 4 4 5 6 7 7 9 13 17 17 14 12 13 12 11 11 9 6 5 4 4 3 3 3 4 4 3 3
3 2 6 6 4 3 3 3 5 4 2 3 6 10 11 8 5 4 4 5 8 8 4 8 13 14 14 14 13 12 11 11 10 7 5 4 4 3 3 3 3 4 4 4
3 6 4 3 4 4 4 5 5 5 2 2 4 9 7 6 3 4 5 4 4 6 5 8 11 12 13 13 13 11 10 9 8 8 5 4 3 3 2 2 3 4 5 5
4 5 4 5 6 6 6 8 7 4 0 3 1 6 9 6 7 5 5 4 2 3 2 5 9 11 12 12 11 11 10 9 8 8 7 7 5 4 5 4 3 4 4 4
5 7 7 5 4 1 4 2 2 2 2 2 1 3 9 6 7 7 6 5 2 1 1 3 6 9 9 10 11 11 10 8 7 7 7 6 4 3 2 2 3 4 3 3
5 5 4 3 3 4 3 6 5 4 3 2 4 5 6 7 11 12 11 8 4 3 5 4 5 8 9 8 6 7 9 7 6 6 6 6 6 5 4 3 3 3 2 2
8 8 7 7 10 7 7 6 5 5 2 5 3 2 3 10 13 15 16 15 10 1 8 9 8 8 8 7 4 4 7 6 6 6 5 6 6 6 5 4 4 3 2 2
6 8 7 9 6 6 2 5 4 3 4 4 3 1 4 10 13 15 17 18 16 8 4 6 9 8 7 7 6 5 6 6 6 6 5 4 5 4 3 4 4 4 3 3
3 6 7 9 8 5 4 1 2 3 3 3 4 1 4 15 18 20 20 20 19 15 9 6 5 5 5 7 8 7 7 5 5 5 4 4 4 4 4 3 3 3 3 2
2 5 5 7 8 8 4 2 3 1 2 3 1 5 9 17 18 18 18 18 17 14 11 8 6 3 2 5 5 5 6 6 5 5 4 4 5 5 4 4 4 4 4 3
4 2 7 7 6 5 6 5 3 1 2 1 2 4 9 12 13 14 14 15 14 13 10 7 4 3 6 5 4 5 6 6 6 5 4 3 3 4 4 4 5 5 4 4
3 4 4 3 2 1 3 2 2 1 2 2 3 4 8 10 11 11 13 14 14 12 7 5 6 8 8 6 5 5 6 6 5 5 4 3 3 4 4 4 5 5 5 5
3 5 5 8 6 3 5 5 3 2 2 1 2 4 8 11 13 13 13 13 14 13 9 7 8 9 9 7 6 6 6 6 5 5 4 4 4 4 5 5 5 5 5 5
4 4 2 3 5 4 8 12 12 5 2 4 7 6 13 19 19 18 16 14 11 11 8 4 4 5 7 6 5 4 5 4 4 5 4 4 4 5 6 5 5 6 5 5
5 3 3 4 11 13 14 15 15 15 10 8 6 6 13 17 17 16 16 15 14 13 12 9 6 5 5 5 4 2 1 1 4 5 5 4 4 4 4 5 5 6 5 6
5 3 3 4 10 14 16 18 15 12 10 8 6 6 12 15 14 15 16 17 15 13 13 12 11 12 12 10 9 9 8 5 3 3 3 2 3 3 3 4 5 4 5 5
4 2 3 3 2 5 11 12 10 7 9 7 7 8 14 17 19 17 14 15 13 11 10 10 10 10 10 10 10 11 10 10 10 9 7 5 3 3 3 1 0 2 3 3
2 2 2 2 5 6 3 5 5 4 7 10 9 11 13 16 17 10 7 12 13 10 8 8 7 9 8 8 9 8 9 9 9 8 8 7 7 6 6 5 4 3 1 2
5 3 4 3 4 2 3 4 3 3 2 9 11 13 14 17 11 5 10 16 11 6 5 5 5 6 7 7 7 8 7 7 7 7 6 6 6 5 5 5 4 3 2 2
7 7 5 4 4 2 3 6 4 2 1 7 10 12 14 14 9 9 17 19 13 6 4 5 5 6 6 5 6 7 6 6 6 5 4 4 5 5 5 5 4 3 3 3
6 7 6 4 3 1 3 6 4 2 4 8 7 9 9 7 6 14 18 15 10 4 3 5 5 4 3 3 6 6 5 4 3 3 4 4 4 4 4 5 4 4 4 4
2 2 3 2 2 3 3 3 2 3 4 5 6 6 8 10 13 13 14 13 10 3 2 3 3 3 3 3 4 5 4 3 2 3 4 4 5 5 5 5 5 5 5 5
3 5 4 4 4 3 1 2 3 3 3 4 5 8 9 11 11 13 13 12 8 2 1 1 2 3 3 3 2 3 4 2 2 3 3 3 4 4 5 5 5 5 5 4
2 3 3 1 1 3 3 3 3 3 5 7 8 9 8 8 11 12 11 10 8 4 2 1 1 2 3 3 2 1 3 2 3 3 1 1 2 2 4 4 4 4 4 4
6 3 2 2 2 2 3 4 4 4 6 7 7 6 7 8 9 9 9 9 7 5 3 1 1 2 3 2 2 2 2 3 3 2 1 0 0 0 1 2 3 3 3 4
6 7 7 6 6 4 5 5 4 4 5 6 6 6 7 6 7 8 8 7 7 6 4 3 4 4 3 2 3 3 1 3 3 2 1 1 1 1 1 0 1 3 3 5
Wind_Direction
206 107 253 237 187 185 197 258 280 268 271 310 282 284 290 295 309 325 344 347 328 280 239 189 178 175 173 172 170 170 165 165 155 151 154 154 166 174 180 193 199 186 179 170
33 283 236 207 194 184 210 258 268 271 302 305 286 281 278 273 252 255 288 320 327 317 280 190 172 169 169 172 171 167 160 159 159 155 153 153 151 166 177 181 193 197 185 177
232 247 228 219 224 220 232 223 233 244 313 338 319 300 293 292 285 271 268 269 303 305 246 190 167 164 164 169 166 158 147 142 143 140 130 114 99 94 124 178 200 212 198 193
283 281 287 266 247 217 247 233 211 205 193 296 335 299 295 301 307 291 283 274 289 308 257 178 163 158 163 160 144 135 132 130 134 138 142 146 155 167 185 185 199 221 215 202
312 308 309 293 273 237 245 271 189 175 169 295 270 246 289 325 319 307 294 286 268 68 97 157 165 150 139 132 129 130 127 127 134 138 145 146 148 161 160 166 194 215 224 215
297 325 10 2 8 53 49 37 35 52 84 274 240 202 300 355 346 343 336 328 304 132 109 94 89 99 95 90 105 129 132 135 140 142 144 147 152 155 156 173 192 207 211 209
337 343 2 15 4 0 47 57 10 346 335 247 246 183 29 5 14 10 359 353 337 127 126 122 109 96 98 108 133 151 142 145 152 149 152 158 163 168 180 190 202 201 197 211
3 319 346 3 351 308 320 135 166 236 256 289 301 136 70 11 11 13 12 9 8 13 70 120 130 130 139 150 173 175 166 161 163 162 168 173 175 174 190 201 197 197 195 207
348 292 335 8 9 8 1 40 169 179 246 273 283 57 44 7 8 6 5 7 7 2 8 38 70 100 144 170 183 180 172 172 176 177 181 193 199 194 200 200 187 178 177 182
42 304 325 4 22 22 26 38 45 112 216 228 321 49 6 360 357 352 355 354 352 355 4 18 33 21 222 202 184 173 174 184 187 188 194 201 202 194 184 169 171 172 174 169
60 34 330 8 23 346 9 26 17 24 257 212 97 64 8 353 346 342 341 339 336 336 343 353 352 286 251 234 198 182 185 187 189 187 188 178 171 163 159 166 179 180 180 178
17 87 341 326 314 34 75 57 29 53 331 328 114 85 354 347 339 337 333 325 319 310 301 276 256 253 252 241 218 204 196 194 192 174 155 156 151 158 169 187 195 191 191 190
17 64 9 346 333 350 33 8 340 222 210 314 91 72 349 354 354 348 335 317 306 299 286 257 248 254 259 250 228 215 208 200 186 162 156 168 181 186 193 204 205 201 200 200
68 71 85 320 319 24 28 19 22 36 71 63 54 24 356 356 352 348 342 332 318 313 308 277 261 267 271 267 247 226 221 198 175 158 160 191 213 213 209 211 212 211 206 202
62 31 351 53 86 74 49 26 33 43 44 55 49 24 357 345 340 340 350 357 7 10 19 26 27 20 13 9 5 358 297 208 169 163 175 203 232 242 236 227 222 220 214 212
29 15 10 62 99 77 49 24 20 31 32 39 37 19 345 337 342 351 0 7 12 17 19 23 33 41 43 42 41 41 37 41 89 131 172 214 243 255 253 236 221 217 223 228
356 19 47 10 20 59 34 1 1 17 36 19 19 350 339 346 346 342 351 1 1 7 15 25 36 45 48 48 49 48 42 47 53 53 47 35 29 23 4 355 169 225 234 236
14 27 83 56 48 61 295 276 301 339 55 28 6 351 349 339 321 308 350 356 351 359 14 24 37 49 49 51 52 52 50 52 57 56 52 48 47 42 32 33 27 4 323 255
46 63 68 74 85 107 312 314 310 316 47 21 356 347 345 337 327 320 350 351 339 343 13 30 43 56 55 52 52 54 48 48 51 47 41 38 43 41 32 23 9 357 350 333
26 46 61 58 85 68 308 305 306 207 103 7 349 342 343 349 2 332 330 333 331 343 23 37 40 47 49 43 53 53 42 41 40 39 38 35 38 36 23 6 354 347 346 337
10 16 34 43 65 32 282 308 360 53 306 320 323 326 332 337 290 293 310 320 324 331 40 53 51 45 35 42 55 47 32 18 11 37 45 34 23 21 17 6 1 359 5 14
106 58 25 49 42 282 300 32 61 243 266 286 301 306 312 309 305 311 319 323 324 324 43 55 45 18 5 34 52 34 6 338 20 52 52 37 23 21 24 26 22 21 26 32
160 176 181 184 209 226 128 167 217 227 266 277 282 294 303 309 312 319 324 328 330 306 330 48 34 348 344 0 36 15 332 332 83 61 53 45 35 32 32 39 34 27 24 27
238 172 133 114 154 187 206 227 243 245 254 267 275 285 294 299 309 319 325 332 337 325 310 349 42 339 329 325 317 321 344 43 104 87 77 61 56 43 36 35 33 35 23 18
205 161 142 186 202 220 266 273 268 272 278 282 286 284 289 298 310 317 323 329 334 330 307 287 236 275 307 299 276 301 32 78 105 124 174 253 333 59 43 44 33 26 28 17
192 169 169 200 202 186 251 270 268 277 293 299 305 312 317 316 319 325 327 328 335 334 321 296 273 267 269 244 246 257 212 120 132 156 221 261 293 307 296 296 23 33 21 16